TimeCDT,TemperatureF,Dew PointF,Humidity,Sea Level PressureIn,VisibilityMPH,Wind Direction,Wind SpeedMPH,Gust SpeedMPH,PrecipitationIn,Events,Conditions,WindDirDegrees,DateUTC
12:53 AM,14.0,7.0,74,30.27,10.0,Calm,Calm,-,N/A,,Clear,0,2014-03-26 05:53:00
1:53 AM,10.9,7.0,84,30.28,10.0,SW,3.5,-,N/A,,Clear,220,2014-03-26 06:53:00
2:53 AM,12.9,7.0,77,30.28,10.0,SSW,3.5,-,N/A,,Clear,210,2014-03-26 07:53:00
3:53 AM,9.0,5.0,84,30.28,10.0,SSW,5.8,-,N/A,,Clear,210,2014-03-26 08:53:00
4:53 AM,12.0,6.1,77,30.28,10.0,South,3.5,-,N/A,,Clear,190,2014-03-26 09:53:00
5:53 AM,10.9,6.1,81,30.27,10.0,South,5.8,-,N/A,,Clear,180,2014-03-26 10:53:00
6:53 AM,12.0,7.0,80,30.28,10.0,South,6.9,-,N/A,,Clear,190,2014-03-26 11:53:00
7:53 AM,15.1,9.0,77,30.30,10.0,South,6.9,-,N/A,,Clear,190,2014-03-26 12:53:00
8:53 AM,19.9,12.0,71,30.28,10.0,South,16.1,-,N/A,,Partly Cloudy,180,2014-03-26 13:53:00
9:53 AM,24.1,12.0,60,30.26,10.0,South,18.4,-,N/A,,Partly Cloudy,170,2014-03-26 14:53:00
10:53 AM,27.0,12.9,56,30.24,10.0,South,16.1,-,N/A,,Mostly Cloudy,180,2014-03-26 15:53:00
11:53 AM,30.9,14.0,50,30.21,10.0,SSE,18.4,-,N/A,,Clear,160,2014-03-26 16:53:00
12:53 PM,33.1,12.9,43,30.17,10.0,South,18.4,-,N/A,,Mostly Cloudy,180,2014-03-26 17:53:00
1:53 PM,36.0,14.0,41,30.13,10.0,South,19.6,31.1,N/A,,Overcast,180,2014-03-26 18:53:00
2:53 PM,39.0,15.1,38,30.07,10.0,SSE,23.0,31.1,N/A,,Partly Cloudy,160,2014-03-26 19:53:00
3:53 PM,39.0,14.0,36,30.02,10.0,South,24.2,36.8,N/A,,Scattered Clouds,170,2014-03-26 20:53:00
4:53 PM,37.9,16.0,41,29.98,10.0,SSE,26.5,36.8,N/A,,Mostly Cloudy,160,2014-03-26 21:53:00
5:53 PM,37.9,17.1,43,29.97,10.0,SSE,25.3,33.4,N/A,,Overcast,160,2014-03-26 22:53:00
6:53 PM,37.0,19.0,48,29.95,10.0,South,24.2,31.1,N/A,,Overcast,170,2014-03-26 23:53:00
7:53 PM,37.0,19.0,48,29.94,10.0,South,16.1,-,N/A,,Overcast,170,2014-03-27 00:53:00
8:53 PM,37.0,19.0,48,29.91,10.0,South,20.7,29.9,N/A,,Overcast,170,2014-03-27 01:53:00
9:53 PM,37.0,19.9,50,29.89,10.0,South,21.9,-,N/A,,Overcast,170,2014-03-27 02:53:00
10:53 PM,37.9,21.0,51,29.87,10.0,South,21.9,28.8,N/A,,Overcast,180,2014-03-27 03:53:00
11:53 PM,39.0,21.0,49,29.85,10.0,South,20.7,28.8,N/A,,Overcast,180,2014-03-27 04:53:00